Location: Sungai Apap
(2.6167°N, 113.3833°E)
Time: 15:50:46
(UTC+00:00)

Cosmos 1536 Rocket - Pass Details

Date: 25 May 2024
Orbit: 602 x 629 km, 82.5° (Epoch: 12 June)

Event Time Altitude Azimuth Distance (km) Brightness Sun altitude
Exits shadow 20:56:13 41° 221° (SW) 909 3.9 -19.3°
Maximum altitude 20:57:25 55° 273° (W) 744 3.6 -19.0°
Drops below altitude 10° 21:01:45 10° 352° (N) 1,988 6.3 -18.0°
Sets 21:04:01 0° 356° (N) 2,895 7.3 -17.5°
